Location: *
(43.7000°S, 168.7000°W)
Time: 15:02:36
(UTC+00:00)

Cosmos 1707 - Pass Details

Date: 07 July 2020
Orbit: 517 x 529 km, 82.5° (Epoch: 03 August)

Event Time Altitude Azimuth Distance (km) Brightness Sun altitude
Rises 17:40:21 0° 338° (NNW) 2,669 6.3 -11.8°
Reaches altitude 10° 17:42:33 10° 331° (NNW) 1,789 5.3 -11.4°
Maximum altitude 17:46:20 44° 258° (WSW) 755 3.1 -10.8°
Drops below altitude 10° 17:50:10 10° 184° (S) 1,817 5.2 -10.1°
Sets 17:52:25 0° 177° (S) 2,717 6.2 -9.8°
